EHI
0 0 0 0 0 0 0 0 0 0 0 0 0 0 0 0 0 0 0 0 0 0 0 0 0 0 0 0 0 0 0 0 0 0 0 0 0 0 0 0 0 0 0
0 0 0 0 0 0 0 0 0 0 0 0 0 0 0 0 0 0 0 0 0 0 0 0 0 0 0 0 0 0 0 0 0 0 0 0 0 0 0 0 0 0 0
0 0 0 0 0 0 0 0 0 0 0 0 0 0 0 0 0 0 0 0 0 0 0 0 0 0 0 0 0 0 0 0 0 0 0 0 0 0 0 0 0 0 0
0 0 0 0 0 0 0 0 0 0 0 0 0 0 0 0 0 0 0 0 0 0 0 0 0 0 0 0 0 0 0 0 0 0 0 0 0 0 0 0 0 0 0
0 0 0 0 0 0 0 0 0 0 0 0 0 0 0 0 0 0 0 0 0 0 0 0 0 0 0 0 0 0 0 0 0 0 0 0 0 0 0 0 0 0 0
0 0 0 0 0 0 0 0 0 0 0 0 0 0 0 0 0 0 0 0 0 0 0 0 0 0 0 0 0 0 0 0 0 0 0 0 0 0 0 0 0 0 0
0 0 0 0 0 0 0 0 0 0 0 0 0 0 0 0 0 0 0 0 0 0 0 0 0 0 0 0 0 0 0 0 0 0 0 0 0 0 0 0 0 0 0
0 0 0 0 0 0 0 0 0 0 0 0 0 0 0 0 0 0 0 0 0 0 0 0 0 0 0 0 0 0 0 0 0 0 0 0 0 0 0 0 0 0 0
0 0 0 0 0 0 0 0 0 0 0 0 0 0 0 0 0 0 0 0 0 0 0 0 0 0 0 0 0 0 0 0 0 0 0 0 0 0 0 0 0 0 0
0 0 0 0 0 0 0 0 0 0 0 0 0 0 0 0 0 0 0 0 0 0 0 0 0 0 0 0 0 0 0 0 0 0 0 0 0 0 0 0 0 0 0
0 0 0 0 0 0 0 0 0 0 0 0 0 0 0 0 0 0 0 0 0 0 0 0 0 0 0 0 0 0 0 0 0 0 0 0 0 0 0 0 0 0 0
0 0 0 0 0 0 0 0 0 0 0 0 0 0 0 0 0 0 0 0 0 0 0 0 0 0 0 0 0 0 0 0 0 0 0 0 0 0 0 0 0 0 0
0 0 0 0 0 0 0 0 0 0 0 0 0 0 0 0 0 0 0 0 0 0 0 0 0 0 0 0 0 0 0 0 0 0 0 0 0 0 0 0 0 0 0
0 0 0 0 0 0 0 0 0 0 0 0 0 0 0 0 0 0 0 0 0 0 0 0 0 0 0 0 0 0 0 0 0 0 0 0 0 0 0 0 0 0 0
0 0 0 0 0 0 0 0 0 0 0 0 0 0 0 0 0 0 0 0 0 0 0 0 0 0 0 0 0 0 0 0 0 0 0 0 0 0 0 0 0 0 0
0 0 0 0 0 0 0 0 0 0 0 0 0 0 0 0 0 0 0 0 0 0 0 0 0 0 0 0 0 0 0 0 0 0 0 0 0 0 0 0 0 0 0
0 0 0 0 0 0 0 0 0 0 0 0 0 0 0 0 0 0 0 0 0 0 0 0 0 0 0 0 0 0 0 0 0 0 0 0 0 0 0 0 0 0 0
0 0 0 0 0 0 0 0 0 0 0 0 0 0 0 0 0 0 0 0 0 0 0 0 0 0 0 0 0 0 0 0 0 0 0 0 0 0 0 0 0 0 0
0 0 0 0 0 0 0 0 0 0 0 0 0 0 0 0 0 0 0 0 0 0 0 0 0 0 0 0 0 0 0 0 0 0 0 0 0 0 0 0 0 0 0
0 0 0 0 0 0 0 0 0 0 0 0 0 0 0 0 0 0 0 0 0 0 0 0 0 0 0 0 0 0 0 0 0 0 0 0 0 0 0 0 0 0 0
0 0 0 0 0 0 0 0 0 0 0 0 0 0 0 0 0 0 0 0 0 0 0 0 0 0 0 0 0 0 0 0 0 0 0 0 0 0 0 0 0 0 0
0 0 0 0 0 0 0 0 0 0 0 0 0 0 0 0 0 0 0 0 0 0 0 0 0 0 0 0 0 0 0 0 0 0 0 0 0 0 0 0 0 0 0
0 0 0 0 0 0 0 0 0 0 0 0 0 0 0 0 0 0 0 0 0 0 0 0 0 0 0 0 0 0 0 0 0 0 0 0 0 0 0 0 0 0 0
0 0 0 0 0 0 0 0 0 0 0 0 0 0 0 0 0 0 0 0 0 0 0 0 0 0 0 0 0 0 0 0 0 0 0 0 0 0 0 0 0 0 0
0 0 0 0 0 0 0 0 0 0 0 0 0 0 0 0 0 0 0 0 0 0 0 0 0 0 0 0 0 0 0 0 0 0 0 0 0 0 0 0 0 0 0
0 0 0 0 0 0 0 0 0 0 0 0 0 0 0 0 0 0 0 0 0 0 0 0 0 0 0 0 0 0 0 0 0 0 0 0 0 0 0 0 0 0 0
Wind_Speed
0 1 1 1 1 0 0 0 0 1 1 2 3 3 3 3 2 2 3 4 3 3 4 6 6 7 7 8 7 7 7 7 7 7 6 6 6 6 6 6 5 6 6
1 1 1 1 1 1 1 1 1 1 1 1 2 3 3 3 2 2 2 3 4 3 3 5 6 6 7 7 8 7 7 7 6 6 5 5 5 5 5 5 5 5 5
1 1 1 1 1 1 1 1 1 1 1 2 2 2 2 3 2 2 2 2 3 3 3 4 5 5 6 6 7 7 7 6 6 5 5 5 4 4 4 4 4 4 3
2 2 1 1 1 1 1 1 1 1 1 1 1 2 2 2 3 3 2 2 2 2 3 3 4 4 5 5 6 6 6 6 5 5 5 4 4 4 4 3 3 2 2
2 2 2 1 2 1 1 1 2 1 2 2 2 1 1 2 3 3 3 3 2 2 2 3 4 3 3 4 4 5 5 5 5 4 4 4 3 3 3 2 2 2 2
2 2 2 2 2 2 1 2 2 2 2 2 2 1 1 2 2 3 3 3 2 3 3 3 3 3 2 3 4 4 4 4 4 4 3 3 2 2 2 1 1 1 1
2 3 2 2 2 2 2 2 2 3 2 2 2 2 1 1 2 2 2 3 3 3 3 3 2 2 2 3 3 3 3 3 4 3 3 3 2 2 1 1 1 1 1
3 3 3 2 3 3 3 2 3 2 2 2 2 2 3 3 2 2 2 2 3 3 3 3 3 2 2 2 2 3 2 3 3 3 3 2 2 2 2 1 0 1 2
3 3 3 3 3 3 3 3 3 3 3 2 2 2 2 3 2 2 3 3 3 3 3 3 3 3 3 2 3 3 2 2 3 3 3 2 2 2 2 2 1 1 2
4 4 4 4 4 4 4 4 4 4 4 3 3 2 1 0 2 2 3 3 3 4 3 3 3 3 3 3 2 2 2 2 3 3 3 3 3 2 2 2 2 1 2
4 4 4 4 5 4 5 4 4 4 4 4 3 2 3 2 2 2 3 3 3 3 3 4 3 3 4 3 3 2 2 3 4 4 4 3 3 2 2 2 2 2 2
4 5 5 4 5 5 5 5 5 6 5 5 4 3 3 3 3 3 3 4 3 3 3 3 3 3 3 3 3 2 3 3 3 4 4 4 3 3 3 3 3 3 3
4 5 5 5 4 5 5 5 6 5 6 6 5 4 4 4 3 3 3 3 3 2 2 3 3 3 3 3 2 3 4 4 3 3 4 4 3 2 3 4 4 4 4
4 5 6 5 5 5 6 6 5 6 5 6 6 6 4 4 4 3 3 3 3 3 3 3 3 3 3 3 2 3 4 4 4 4 4 3 3 2 3 4 4 4 4
5 6 6 6 6 6 6 6 6 6 6 6 6 6 5 4 4 3 3 4 4 4 4 3 3 4 3 3 2 4 4 4 4 4 4 3 3 3 3 3 3 4 4
6 6 6 6 6 6 7 7 6 7 7 7 5 6 6 4 4 4 4 4 4 4 3 3 2 2 3 2 4 5 4 4 5 5 5 4 4 4 4 4 4 4 4
6 7 7 7 7 7 7 7 7 8 8 8 7 7 7 6 5 5 5 4 4 4 4 3 2 3 4 4 3 4 4 4 4 5 6 6 5 5 5 4 4 4 4
6 7 7 7 7 7 7 8 8 8 8 9 8 8 8 6 7 6 5 5 5 4 4 5 3 3 4 5 5 5 4 4 4 5 6 6 6 6 5 5 5 4 4
6 7 7 8 7 7 8 9 9 9 9 9 9 9 9 8 8 6 7 6 5 4 5 5 4 3 3 4 5 4 5 4 4 4 5 6 6 7 7 6 5 5 5
7 7 7 8 8 8 9 9 9 9 9 9 9 9 9 9 9 8 7 7 6 5 5 5 4 4 4 4 4 4 4 4 3 3 4 4 6 6 6 6 6 5 5
6 7 7 8 8 7 8 8 8 9 9 9 9 9 9 9 10 8 7 7 6 6 5 5 5 4 4 4 5 4 4 3 3 3 3 3 4 4 5 6 6 6 6
5 6 7 7 8 7 9 11 9 8 9 9 9 9 9 9 10 12 11 10 8 8 7 6 5 6 6 5 4 4 4 4 4 2 3 4 3 4 4 4 5 6 7
5 5 6 7 8 8 9 10 11 9 9 9 9 8 7 7 10 9 10 10 10 10 10 8 7 7 7 6 6 6 5 5 4 3 3 4 4 4 3 4 5 6 7
4 5 5 5 6 7 8 9 9 9 8 8 9 9 9 8 8 9 8 8 8 9 10 9 8 8 6 6 6 6 5 4 4 3 4 4 4 4 4 4 5 6 7
4 5 4 5 5 6 7 8 9 6 7 8 8 8 9 9 10 11 9 9 8 7 7 8 8 8 7 7 6 4 4 4 4 4 3 3 3 3 4 4 3 5 6
4 4 4 4 4 5 6 7 8 5 6 6 6 7 9 11 11 12 10 9 9 8 6 5 6 7 7 8 9 7 6 6 4 3 3 3 2 2 3 3 3 3 4
Wind_Direction
293 320 318 325 317 307 260 245 205 158 148 148 152 151 153 151 139 136 114 90 88 109 137 146 144 139 138 131 126 121 115 109 105 98 93 90 87 84 84 80 77 74 74
251 264 286 293 282 274 256 244 229 196 182 156 155 161 162 156 154 148 137 120 94 88 117 142 143 142 140 138 131 124 118 114 110 105 99 94 90 85 81 83 79 76 73
247 240 246 249 267 274 253 231 219 209 185 170 164 167 164 162 155 161 156 155 143 109 99 130 136 139 142 141 140 132 127 125 118 110 102 96 91 87 81 79 78 79 77
249 238 233 237 248 249 249 226 216 213 199 188 175 175 176 174 170 167 164 164 166 161 137 114 117 129 136 140 142 137 134 130 125 120 115 105 95 92 84 77 74 79 79
245 238 228 228 230 236 241 235 217 211 205 204 188 184 185 187 176 171 171 169 174 175 166 135 125 121 135 147 152 146 143 138 135 130 125 113 104 96 91 84 77 72 69
257 233 221 220 229 228 231 228 216 203 207 203 196 181 178 191 185 178 179 177 180 183 181 177 165 145 133 152 155 155 154 147 140 138 139 136 125 109 92 87 77 58 40
280 238 225 217 228 229 231 225 216 194 191 192 189 172 164 174 180 182 182 182 181 188 184 185 181 179 172 170 156 152 162 156 155 154 154 163 167 161 144 101 59 25 3
274 252 223 221 226 227 223 223 215 201 192 204 199 183 187 185 189 194 187 196 191 191 189 187 188 191 193 187 150 149 159 172 172 172 170 174 187 201 203 199 244 332 341
262 257 239 226 223 225 223 224 220 209 195 203 214 214 207 198 174 182 192 197 199 198 199 198 197 197 196 192 184 165 161 180 193 192 191 195 209 227 228 225 244 269 312
252 252 239 231 221 225 229 226 223 219 204 202 204 228 262 207 194 178 182 192 206 209 207 203 205 200 200 195 188 163 169 187 202 208 213 217 222 242 249 250 246 274 312
245 247 240 235 226 223 227 226 228 219 213 210 205 206 204 213 227 218 198 186 198 210 211 208 206 205 202 198 196 183 176 191 205 214 224 228 236 252 265 271 269 273 291
237 240 236 232 231 227 227 226 226 221 219 218 212 211 204 200 203 210 215 202 203 206 209 208 209 209 203 200 198 172 188 202 215 221 222 225 240 259 273 279 278 284 289
237 238 236 231 233 233 229 228 225 222 221 219 217 215 218 218 215 222 217 215 217 208 210 214 212 211 203 207 196 185 198 208 219 224 229 230 235 259 283 280 280 280 285
240 241 238 232 235 239 233 229 222 221 220 220 223 221 220 218 214 222 214 213 215 214 212 211 202 205 203 209 195 202 207 209 220 228 238 246 243 250 273 279 278 287 288
239 239 238 232 232 235 234 228 222 220 219 220 220 221 222 222 217 225 223 219 220 218 214 199 198 203 204 211 188 214 218 217 230 232 238 249 247 243 253 268 280 285 290
240 239 239 230 229 230 231 226 222 220 218 218 218 220 221 222 216 217 222 226 234 229 225 207 219 217 221 237 220 226 228 223 226 232 236 241 247 241 246 255 271 281 287
238 236 239 232 230 228 229 226 221 219 219 220 218 220 222 221 217 213 214 219 227 234 232 234 243 226 228 230 223 228 227 225 224 233 237 239 243 242 245 253 259 269 277
240 235 237 233 231 229 228 227 222 220 219 219 219 220 222 220 220 217 214 217 222 227 229 232 233 230 231 229 226 231 233 234 231 231 238 239 240 239 239 245 246 253 266
246 238 236 234 232 232 233 232 224 220 221 223 222 221 222 220 220 218 217 217 220 224 227 226 232 231 233 226 227 230 235 234 241 229 228 232 236 238 237 239 242 247 256
248 239 238 237 235 236 235 234 226 222 222 225 227 225 225 224 220 218 219 218 216 220 220 217 223 225 228 228 223 222 231 230 237 236 233 236 235 233 234 241 243 246 249
255 242 239 237 235 236 234 231 227 225 224 225 227 227 228 230 228 223 220 215 211 216 216 213 218 228 226 216 220 218 233 240 243 227 235 236 234 231 229 230 233 243 250
264 248 242 239 238 238 235 235 233 228 227 227 228 229 228 227 224 226 228 228 224 217 216 216 222 222 227 227 226 223 221 234 238 212 242 248 238 237 239 238 242 243 246
266 258 251 243 244 246 242 239 235 233 229 227 227 228 226 224 221 221 222 226 231 231 226 225 225 226 228 225 218 223 226 233 250 236 239 247 240 244 248 247 246 243 246
266 262 259 255 254 252 250 247 242 236 235 232 230 229 229 226 219 218 218 220 226 225 220 223 228 231 232 226 222 228 235 247 266 243 223 241 243 250 252 249 238 244 245
273 270 269 264 265 265 259 251 240 233 231 235 234 231 229 228 223 220 217 218 225 230 229 231 237 235 229 226 222 217 216 222 243 240 225 231 245 265 263 256 241 234 246
281 286 285 279 273 275 277 258 237 230 231 231 228 229 230 231 226 220 218 217 222 224 219 222 230 231 226 220 219 219 216 219 232 238 214 219 235 243 261 256 254 249 252